• Join FlightAware (Why Join?)
  • Login
  • US Flag 
08:51PM EDT


 

Airport Tracker/Info


-or-


 

Live Flight TrackerFlight Track Log ✈ ASH3733 ✈ 15-Apr-2013 ✈ KPVD - KIAD

Flight Track Log - Related Links

Times and Time Zones

All times are in EDT time to prevent confusion due to time zone crossing. See the ASH3733 flight status page for this flight to view local times or setup timezone preferences in your user account.

Time Position Orientation Groundspeed Altitude Reporting Facility
EDT Latitude Longitude Course Direction KTS MPH feet Rate Location/Type
05:51AM 41.7394 -71.4219 339° North 158 182 800  Level Boston Center
05:53AM 41.8083 -71.4569 339° North 198 228 4,200 2,400 Climbing Boston Center
05:54AM 41.8339 -71.5261 296° West 205 236 6,900 2,700 Climbing Boston Center
05:55AM 41.8681 -71.6067 300° West 235 270 9,600 2,580 Climbing Boston Center
05:56AM 41.8792 -71.7067 279° West 252 290 12,000 2,100 Climbing Boston Center
05:57AM 41.8858 -71.8014 275° West 276 318 13,900 1,920 Climbing Boston Center
05:58AM 41.8928 -71.9186 275° West 309 356 15,900 1,920 Climbing Boston Center
05:59AM 41.8994 -72.0467 274° West 322 371 17,800 1,740 Climbing Boston Center
06:00AM 41.9061 -72.1556 275° West 327 376 19,400 1,680 Climbing Boston Center
06:01AM 41.9022 -72.2811 268° West 332 382 21,200 1,800 Climbing Boston Center
06:02AM 41.8897 -72.4094 263° West 337 388 23,100 1,800 Climbing Boston Center
06:03AM 41.8772 -72.5406 263° West 347 399 24,800 1,380 Climbing Boston Center
06:04AM 41.8686 -72.6686 265° West 353 406 26,000 1,200 Climbing Boston Center
06:05AM 41.8581 -72.8053 264° West 358 412 27,300 1,260 Climbing Boston Center
06:06AM 41.8450 -72.9389 263° West 368 423 28,600 1,320 Climbing Boston Center
06:07AM 41.8297 -73.0808 262° West 374 430 30,000 660 Climbing Boston Center
06:08AM 41.8161 -73.2200 263° West 374 430 30,000  Level Boston Center
06:09AM 41.7861 -73.3506 253° West 379 436 30,000  Level Boston Center
06:10AM 41.7122 -73.4581 227° Southwest 380 437 30,000  Level Boston Center
06:11AM 41.6403 -73.5650 228° Southwest 385 443 30,000  Level Boston Center
06:13AM 41.4814 -73.7867 226° Southwest 397 457 30,000  Level New York Center
06:14AM 41.4078 -73.8939 228° Southwest 397 457 30,000  Level New York Center
06:15AM 41.3297 -74.0036 227° Southwest 397 457 30,000  Level New York Center
06:16AM 41.2583 -74.1050 227° Southwest 397 457 30,000  Level New York Center
06:17AM 41.1717 -74.2164 224° Southwest 397 457 30,000  Level New York Center
06:18AM 41.0978 -74.3200 227° Southwest 397 457 30,000  Level New York Center
06:19AM 41.0217 -74.4261 226° Southwest 397 457 30,000 -420 Level New York Center
06:20AM 40.9478 -74.5267 226° Southwest 397 457 29,200 -960 Descending New York Center
06:21AM 40.8878 -74.6439 236° Southwest 397 457 28,200 -1,020 Descending New York Center
06:22AM 40.8353 -74.7753 242° Southwest 398 458 27,200 -1,020 Descending New York Center
06:23AM 40.7789 -74.9008 239° Southwest 403 464 26,200 -1,020 Descending New York Center
06:24AM 40.7203 -75.0261 238° Southwest 403 464 25,200 -1,020 Descending New York Center
06:25AM 40.6614 -75.1536 239° Southwest 408 470 24,200 -1,020 Descending New York Center
06:26AM 40.6047 -75.2786 239° Southwest 408 470 23,200 -1,020 Descending New York Center
06:27AM 40.5503 -75.3925 238° Southwest 415 478 22,200 -1,020 Descending New York Center
06:28AM 40.4933 -75.5169 239° Southwest 410 472 21,200 -780 Descending New York Center
06:29AM 40.4339 -75.6408 238° Southwest 410 472 20,700 -600 Descending New York Center
06:30AM 40.3747 -75.7622 237° Southwest 410 472 20,000 -360 Descending New York Center
06:31AM 40.3172 -75.8858 239° Southwest 405 466 20,000  Level New York Center
06:32AM 40.2556 -76.0147 238° Southwest 411 473 20,000  Level New York Center
06:33AM 40.1936 -76.1350 236° Southwest 398 458 20,000  Level New York Center
06:34AM 40.1469 -76.2456 241° Southwest 393 452 20,000 -600 Level New York Center
06:35AM 40.0333 -76.4667 236° Southwest 398 458 18,400 -840 Descending Potomac TRACON
06:36AM 39.9833 -76.5833 241° Southwest 387 445 17,800 -840 Descending Potomac TRACON
06:37AM 39.9333 -76.6833 237° Southwest 388 447 16,900 -1,020 Descending Potomac TRACON
06:38AM 39.8833 -76.8000 241° Southwest 384 442 15,900 -1,320 Descending Potomac TRACON
06:39AM 39.8333 -76.9167 241° Southwest 375 432 14,300 -1,860 Descending Potomac TRACON
06:40AM 39.7833 -77.0333 241° Southwest 371 427 12,400 -2,100 Descending Potomac TRACON
06:41AM 39.7167 -77.1333 229° Southwest 361 415 10,400 -1,260 Descending Potomac TRACON
06:42AM 39.6833 -77.2333 247° West 344 396 10,100 -180 Descending Potomac TRACON
06:43AM 39.6333 -77.3167 232° Southwest 295 339 10,100 -660 Level Potomac TRACON
06:44AM 39.5833 -77.3667 218° Southwest 268 308 8,800 -1,380 Descending Potomac TRACON
06:45AM 39.5167 -77.4167 210° Southwest 272 313 7,500 -900 Descending Potomac TRACON
06:46AM 39.4500 -77.4500 201° Southwest 249 287 7,100 -240 Descending Potomac TRACON
06:47AM 39.3833 -77.4500 180° South 253 291 7,100  Level Potomac TRACON
06:48AM 39.3167 -77.4500 180° South 259 298 7,100 -240 Level Potomac TRACON
06:49AM 39.2500 -77.4500 180° South 260 299 6,700 -900 Descending Potomac TRACON
06:50AM 39.1833 -77.4500 180° South 247 284 5,400 -1,800 Descending Potomac TRACON
06:51AM 39.1167 -77.4500 180° South 236 272 3,200 -1,500 Descending Potomac TRACON
06:52AM 39.0500 -77.4500 180° South 204 235 2,500 -1,020 Descending Potomac TRACON
06:53AM 39.0000 -77.4667 195° South 136 157 1,200 -1,320 Descending Potomac TRACON
06:55AM 38.9474 -77.4599 180° South  Level Estimated
07:02AM 38.9474 -77.4599 349° North  Level Estimated
07:03AM 38.9474 -77.4599 349° North  Level Estimated
07:04AM 38.9474 -77.4599 349° North  Level Estimated